Regional Weather Roundup
Issued by NWS

Home | Current Version | Previous Version | Graphics & Text | Print | Product List | Glossary On
Versions: 1 2 3 4 5 6 7 8 9 10 11 12 13 14 15 16 17 18 19 20 21 22 23 24 25 26 27 28 29 30 31 32 33 34 35 36 37 38 39 40 41 42 43 44 45 46 47 48 49 50
000
ASUS43 KMPX 290601
RWRMN
WEATHER ROUNDUP FOR MINNESOTA
NATIONAL WEATHER SERVICE TWIN CITIES/CHANHASSEN MN
100 AM CDT WED MAR 29 2017


NOTE: "FAIR" INDICATES FEW OR NO CLOUDS BELOW 12,000 FEET WITH NO
SIGNIFICANT WEATHER AND/OR OBSTRUCTIONS TO VISIBILITY. N/A MEANS
CURRENT SKY AND/OR WEATHER CONDITIONS ARE NOT AVAILABLE.

MNZ060>063-068>070-290700-
   Twin Cities Metro

CITY           SKY/WX    TMP DP  RH WIND       PRES   REMARKS
TWIN CITIES    CLOUDY    46  34  62 CALM      30.18F
6HR MIN TEMP:  46; 6HR MAX TEMP:  61;

ST PAUL        CLOUDY    42  38  85 CALM      30.19F
CRYSTAL        CLOUDY    41  27  57 CALM      30.17F
BLAINE         CLOUDY    39  30  70 CALM      30.18F
LAKEVILLE      CLOUDY    37  36  93 CALM      30.18S
EDEN PRAIRIE   CLOUDY    46  31  55 CALM      30.17S
6HR MIN TEMP:  46; 6HR MAX TEMP:  61;

SOUTH ST PAUL  CLOUDY    42  33  71 CALM      30.18S
LAKE ELMO      FAIR      34  32  93 CALM      30.20S
$$
MNZ001>005-007-008-013>017-022>024-027-028-290700-
   Northwest Minnesota

CITY           SKY/WX    TMP DP  RH WIND       PRES   REMARKS
BEMIDJI        CLOUDY    33  26  75 E5        30.21F WCI  29
HALLOCK        CLOUDY    37  32  81 E9        30.21F
ROSEAU         CLOUDY    34  28  80 E6        30.24F WCI  29
WARROAD        CLOUDY    32  28  86 NE7       30.26S WCI  26
THIEF RVR FALL PTCLDY    39  30  70 E8        30.22F
CROOKSTON      PTCLDY    41  32  70 E9        30.21F
FOSSTON        CLEAR     36  28  75 NE5       30.20F
DETROIT LAKES  CLOUDY    43  32  65 CALM      30.20S
MOORHEAD       PTCLDY    37  37 100 NE3       30.20R
PARK RAPIDS    CLOUDY    37  26  64 CALM      30.19F
MAHNOMEN       FAIR      38  29  72 E5        30.19S
$$
MNZ006-009>011-018-025>026-290700-
   North Central Minnesota

CITY           SKY/WX    TMP DP  RH WIND       PRES   REMARKS
BAUDETTE       CLOUDY    36  24  62 E5        30.25R
FLAG ISLAND    CLOUDY    37  21  52 E5        30.26S
INTL FALLS     PTCLDY    37  23  56 E6        30.26S
6HR MIN TEMP:  35; 6HR MAX TEMP:  50;

WASKISH        CLOUDY    34  28  80 E3        30.23F
BIG FORK       CLEAR     34  25  69 CALM      30.24S
LONGVILLE      CLOUDY    30  27  86 CALM      30.20F
GRAND RAPIDS   PTCLDY    42  27  55 SE7       30.24F
CRANE LAKE     CLEAR     25  23  93 CALM      30.29S
ORR            CLEAR     36  23  60 CALM      30.23F
COOK           CLEAR     30  27  86 E3        30.26S
WALKER         FAIR      37  26  64 CALM      30.21F
$$
MNZ012-019>021-037-290700-
   Northeast Minnesota

CITY           SKY/WX    TMP DP  RH WIND       PRES   REMARKS
DULUTH         CLEAR     36  27  69 E10       30.26R
6HR MIN TEMP:  36; 6HR MAX TEMP:  50;

ELY            CLEAR     28  25  86 CALM      30.28R
HIBBING        CLEAR     32  25  75 CALM      30.25R
EVELETH        CLEAR    N/A N/A N/A NE5       30.27S
DULUTH HARBOR  CLEAR     36  34  93 NE14      30.30S
TWO HARBORS    CLEAR     39  28  65 NE7       30.28R
SILVER BAY     CLEAR     37  27  65 NE10      30.29R
GRAND MARAIS     N/A     32  24  72 NE3       30.33S
G MARAIS ARPRT CLEAR     28  18  64 N8        30.30R WCI  20
$$
MNZ029>031-032-039>041-046>048-054>057-064-290700-
   West Central Minnesota

CITY           SKY/WX    TMP DP  RH WIND       PRES   REMARKS
FERGUS FALLS   PTCLDY    45  36  70 E6        30.20S
WHEATON        CLOUDY    39  37  93 CALM      30.20S FOG
MORRIS         CLOUDY    39  36  87 E5        30.16S
ALEXANDRIA     CLEAR     40  33  76 SE5       30.18F
ELBOW LAKE     FAIR      43  38  81 CALM      30.17S
WADENA         PTCLDY    41  28  60 E5        30.18S
GLENWOOD       CLEAR     41  32  70 N6        30.18F
APPLETON       CLOUDY    39  36  87 CALM      30.16S
BENSON         CLOUDY    37  30  75 CALM      30.18S
ORTONVILLE     CLOUDY    43  36  75 NE6       30.17S
MADISON        CLOUDY    45  36  70 NE6       30.16F
WILLMAR        FAIR      39  34  81 E3        30.18S
$$
MNZ033>034-036-042>043-049>051-058-059-290700-
   Central Minnesota

CITY           SKY/WX    TMP DP  RH WIND       PRES   REMARKS
ST CLOUD       CLEAR     34  30  85 CALM      30.18F
6HR MIN TEMP:  34; 6HR MAX TEMP:  59;

SAUK CENTRE    FAIR      37  31  80 CALM      30.18F
PAYNESVILLE    CLEAR     34  32  92 CALM      30.18S
AITKIN         PTCLDY    39  27  60 E8        30.20F
PINE RIVER     CLEAR     34  27  75 CALM      30.23F
BRAINERD       CLEAR     30  27  88 CALM      30.20F
STAPLES        CLEAR     37  27  65 CALM      30.19S
LONG PRAIRIE   FAIR      36  32  87 N3        30.19S
LITTLE FALLS   CLEAR     34  30  86 CALM      30.19F
LITCHFIELD     CLOUDY    43  36  75 CALM      30.18S
BUFFALO        CLOUDY    37  30  74 CALM      30.18F
MAPLE LAKE     CLOUDY    36  33  87 CALM      30.18F
HUTCHINSON     CLOUDY    39  33  79 CALM      30.19R
$$
MNZ037-044-045-052-053-290700-
   East Central Minnesota

CITY           SKY/WX    TMP DP  RH WIND       PRES   REMARKS
PRINCETON      CLEAR     36  30  80 CALM      30.19F
MORA           CLEAR     36  30  80 CALM      30.22S
CAMBRIDGE      CLEAR     37  27  65 CALM      30.18F
RUSH CITY      PTCLDY    35  27  73 CALM      30.21S
MOOSE LAKE     CLEAR     34  32  93 NE6       30.23S WCI  29
CLOQUET        PTCLDY    36  28  75 E6        30.25S
MCGREGOR       CLEAR     34  30  86 E5        30.23F WCI  30
$$
MNZ071>073-080-081-089-090-097-098-290700-
   Southwest Minnesota

CITY           SKY/WX    TMP DP  RH WIND       PRES   REMARKS
MONTEVIDEO     CLOUDY    45  32  61 CALM      30.17S
GRANITE FALLS  CLOUDY    45  32  61 NE3       30.18S
CANBY          CLOUDY    41  36  84 CALM      30.17S
MARSHALL       CLOUDY    39  34  82 CALM      30.16S
REDWOOD FALLS  PTCLDY    46  33  60 NE3       30.16S
OLIVIA         CLOUDY    46  32  57 E6        30.16S
PIPESTONE      CLOUDY    37  30  75 E5        30.14S
WINDOM         CLOUDY    39  36  87 E3        30.15F
WORTHINGTON    PTCLDY    40  36  86 NE6       30.15S
JACKSON        CLOUDY    41  36  81 E6        30.15S
TRACY          CLOUDY    46  37  70 SE3       30.16S
SLAYTON        CLOUDY    36  33  90 N3        30.16S
$$
MNZ065>067-074>077-082>085-091>093-290700-
   South Central Minnesota

CITY           SKY/WX    TMP DP  RH WIND       PRES   REMARKS
MANKATO        CLOUDY    47  36  65 E5        30.17S
NEW ULM        CLOUDY    45  34  65 E3        30.16S
ST JAMES       CLOUDY    43  37  81 CALM      30.17S
FAIRMONT       PTCLDY    42  37  82 E6        30.16S
GLENCOE        CLOUDY    41  35  79 CALM      30.17S
FARIBAULT      PTCLDY    36  36 100 CALM      30.18S
OWATONNA       CLOUDY    43  34  70 SE3       30.18R
WASECA         CLOUDY    43  34  70 E5        30.18S
ALBERT LEA     CLOUDY    41  36  81 CALM      30.17R
$$
MNZ078>079-086>088-094>096-290700-
   Southeast Minnesota

CITY           SKY/WX    TMP DP  RH WIND       PRES   REMARKS
ROCHESTER      CLOUDY    44  34  67 E7        30.18R
6HR MIN TEMP:  43; 6HR MAX TEMP:  53;

RED WING       CLOUDY    36  30  80 CALM      30.18S
STANTON        CLOUDY    38  35  89 CALM      30.17S
DODGE CENTER   PTCLDY    37  34  87 CALM      30.18R
WINONA         CLOUDY    37  36  93 CALM      30.21R
AUSTIN         PTCLDY    43  36  75 CALM      30.17R
PRESTON        PTCLDY    44  35  68 E5        30.18S
$$
ABBREVIATIONS USED IN REMARKS
   TC - TEMPERATURES IN CELSIUS
  WCI - WIND CHILL INDEX
   HX - HEAT INDEX
  VSB - VISIBILITY
$$




USA.gov is the U.S. government's official web portal to all federal, state and local government web resources and services.